Lapse_Rate
6.2 6.1 6.1 5.9 5.8 6.0 6.1 6.0 6.0 6.0 6.0 6.3 6.5 6.4 6.2 6.2 6.0 5.8 5.7 5.5 5.4 5.5 5.4 5.3 5.3 5.3 5.3 5.4 5.3 5.4 5.4 5.4 5.4 5.5 5.6 5.6 5.6 5.5 5.5 5.5 5.8 6.0 6.2
6.0 6.1 6.1 6.0 6.0 6.0 6.1 6.1 6.0 6.2 6.3 6.4 6.5 6.5 6.5 6.3 6.1 5.9 6.0 5.9 5.7 5.7 5.6 5.5 5.4 5.4 5.3 5.3 5.4 5.4 5.6 5.6 5.5 5.6 5.7 5.6 5.6 5.7 5.7 5.9 6.0 6.2 6.1
5.9 5.9 6.1 6.1 6.0 5.8 6.0 6.2 6.3 6.3 6.3 6.2 6.4 6.4 6.4 6.3 6.3 6.1 6.2 6.3 6.0 5.8 5.7 5.6 5.6 5.5 5.5 5.4 5.4 5.4 5.4 5.5 5.7 5.7 5.8 5.8 5.8 5.9 5.9 5.9 6.0 6.1 6.2
5.7 5.8 5.9 6.0 6.0 5.9 6.0 6.1 6.3 6.4 6.3 6.3 6.4 6.1 6.2 6.2 6.4 6.4 6.2 6.3 6.3 6.1 6.0 5.9 5.8 5.7 5.6 5.6 5.6 5.6 5.6 5.6 5.5 5.7 5.9 5.9 6.1 6.2 6.3 6.3 6.2 6.1 6.2
5.9 5.8 5.7 5.8 5.9 5.8 5.9 6.0 6.1 6.3 6.4 6.3 6.3 6.0 6.0 6.2 6.2 6.3 6.5 6.3 6.3 6.4 6.3 6.1 5.9 5.9 5.8 5.8 5.7 5.7 5.7 5.7 5.7 5.8 6.0 6.1 6.1 6.2 6.4 6.6 6.7 6.7 6.7
6.2 5.9 5.8 5.8 5.8 5.7 5.8 5.8 6.0 6.1 6.2 6.3 6.0 6.1 5.9 5.9 6.1 6.4 6.5 6.4 6.4 6.3 6.3 6.2 6.2 6.1 5.9 5.8 5.8 5.7 5.8 5.9 5.9 5.9 5.9 6.1 6.2 6.3 6.4 6.3 6.3 6.4 6.3
6.2 6.2 6.2 6.0 5.9 5.7 5.8 5.8 5.8 5.8 5.9 6.0 5.7 5.7 6.1 6.1 6.2 6.2 6.4 6.5 6.6 6.3 6.1 6.2 6.2 6.2 6.0 5.8 5.8 5.8 5.6 5.7 5.9 5.9 5.9 5.9 6.1 6.2 6.3 6.1 6.2 6.2 6.2
6.1 6.2 6.2 6.2 6.1 5.9 5.7 5.7 5.7 5.7 5.8 5.8 5.6 5.5 5.5 5.9 6.1 6.3 6.3 6.4 6.4 6.1 6.0 5.9 5.9 5.9 6.0 5.9 5.9 5.8 5.8 5.7 5.7 5.9 6.0 6.0 5.9 6.0 6.0 6.0 5.9 5.9 6.0
6.0 6.0 6.0 6.1 6.1 5.8 5.7 5.9 5.7 5.8 5.4 5.9 5.9 5.4 5.3 5.4 6.3 6.2 6.1 6.2 6.4 6.2 6.1 6.1 5.8 5.8 5.8 5.9 5.8 5.9 5.8 5.7 5.7 5.8 5.9 6.0 6.0 5.8 5.8 5.9 5.9 5.9 5.9
6.0 6.0 5.9 6.0 6.2 6.1 5.9 5.7 5.6 5.7 5.7 5.5 5.7 5.6 5.3 5.6 5.9 5.9 6.1 5.9 5.9 6.2 6.2 6.2 6.1 5.8 5.6 5.5 5.6 5.7 5.8 5.7 5.7 5.7 5.7 5.8 5.9 5.7 5.7 5.7 5.7 5.8 6.0
6.2 6.2 6.1 6.0 5.9 6.1 6.0 5.9 5.8 5.4 5.5 5.6 5.5 5.6 5.8 5.4 5.6 5.6 5.6 6.1 5.9 5.9 6.0 5.9 5.8 5.8 5.8 5.8 5.8 5.6 5.6 5.6 5.6 5.5 5.3 5.4 5.5 5.5 5.6 5.8 5.7 5.7 5.9
6.3 6.3 6.3 6.2 6.2 6.1 6.1 6.0 5.9 5.8 5.5 5.3 5.5 5.5 5.4 5.3 5.7 5.6 5.4 5.7 5.2 5.7 5.8 5.9 5.8 5.7 5.8 5.9 5.7 5.7 5.4 5.4 5.5 5.6 5.5 5.4 5.4 5.4 5.3 5.5 5.7 5.7 5.6
6.3 6.4 6.5 6.4 6.4 6.3 6.1 6.0 5.9 5.7 5.6 5.3 5.4 5.1 5.4 5.3 5.3 5.7 5.6 5.5 5.2 5.4 5.7 5.6 6.0 5.8 5.7 5.7 5.6 5.3 5.4 5.3 5.5 5.6 5.5 5.4 5.5 5.4 5.7 5.7 5.7 5.6 5.6
6.1 6.0 6.0 6.1 6.2 6.2 6.1 6.0 5.9 5.7 5.7 5.6 5.5 5.2 5.0 5.0 5.1 5.3 5.2 5.1 5.3 5.4 5.6 5.4 5.7 5.8 5.8 5.6 5.6 5.6 5.6 5.7 5.2 5.3 5.4 5.6 5.1 5.3 5.3 5.1 5.4 5.4 5.2
6.3 6.0 5.9 5.9 5.9 5.9 5.9 5.9 5.8 5.8 5.8 5.7 5.7 5.6 5.5 5.3 5.1 5.1 5.3 5.2 5.1 5.2 5.7 5.3 5.3 5.5 5.5 5.5 5.6 5.2 5.4 5.6 5.2 5.4 5.4 5.5 5.2 4.8 5.2 5.2 5.2 5.4 5.7
6.4 6.5 6.3 5.9 5.6 5.6 5.5 5.4 5.5 5.5 5.5 5.7 5.6 5.6 5.6 5.5 5.4 5.4 5.4 5.4 5.4 5.4 5.2 5.2 5.3 5.4 5.5 5.2 5.5 5.3 5.4 5.4 5.5 5.2 5.0 5.2 5.1 5.0 5.2 5.2 5.3 5.4 5.6
6.3 6.5 6.7 6.6 6.4 6.1 5.7 5.5 5.4 5.3 5.2 5.3 5.3 5.3 5.3 5.2 5.2 5.3 5.4 5.5 5.6 5.5 5.4 5.5 5.5 5.7 5.3 5.4 5.9 5.5 5.5 5.5 5.1 5.0 5.1 4.9 5.0 5.2 5.5 5.6 5.3 5.3 5.4
6.3 6.4 6.5 6.6 6.4 6.3 5.9 5.6 5.4 5.3 5.3 5.2 5.1 5.1 5.1 5.1 5.1 5.2 4.9 5.3 5.8 5.9 5.7 5.6 5.8 5.9 5.7 5.8 5.6 5.7 5.8 5.4 5.3 5.2 5.0 4.8 5.1 5.2 5.5 5.6 5.5 5.4 5.3
6.1 6.2 6.2 6.4 6.2 6.1 6.1 6.1 6.2 6.1 6.1 6.2 6.0 5.7 5.5 5.4 5.3 5.3 5.5 5.5 5.8 6.2 6.0 5.9 5.8 6.0 6.0 6.8 6.4 6.3 6.3 5.0 5.2 5.0 5.1 4.9 5.0 5.2 5.5 5.7 5.6 5.4 5.4
4.9 5.2 5.7 6.0 6.2 6.3 6.3 6.2 6.0 5.9 5.7 5.8 5.9 6.0 6.1 6.2 6.5 6.5 6.4 6.3 6.4 6.5 6.5 6.3 6.3 6.2 6.4 6.4 6.4 6.4 6.0 5.4 5.4 5.6 5.0 5.1 5.6 5.8 5.8 5.8 5.8 5.6 5.7
4.4 4.3 4.5 4.8 4.9 5.2 5.6 5.9 6.0 6.1 6.1 5.9 5.7 5.9 5.9 5.8 6.0 6.3 6.5 6.6 6.4 6.6 6.7 6.6 6.4 6.3 6.5 6.4 6.5 6.2 6.0 5.4 5.3 5.1 5.1 5.3 5.8 5.8 5.6 5.8 6.0 6.1 6.3
4.7 4.7 4.6 4.5 4.6 4.7 5.0 5.0 5.2 5.4 5.7 6.3 6.6 6.6 6.8 6.8 6.7 6.6 6.6 6.6 6.4 6.2 6.3 6.3 6.0 6.1 6.4 6.2 6.1 6.3 5.8 5.8 5.8 5.4 5.5 5.4 5.6 5.7 5.9 6.1 6.0 6.0 5.7
5.1 4.8 4.7 4.7 4.6 4.4 4.3 4.3 4.6 4.9 5.1 5.3 5.6 6.1 6.9 7.2 7.2 7.3 6.9 6.9 7.0 6.8 6.6 6.3 6.2 5.9 5.8 6.0 5.9 6.2 5.6 5.4 5.6 5.3 5.2 5.5 5.5 5.6 5.9 6.3 5.8 5.6 5.6
5.5 5.3 5.3 5.0 4.9 4.9 4.8 4.6 4.5 4.6 4.6 4.7 4.8 5.2 6.2 6.6 6.8 6.7 6.6 6.6 6.7 7.0 6.8 6.2 6.0 5.8 5.9 6.1 5.9 5.9 5.9 5.8 5.8 5.6 5.6 5.5 5.8 5.8 5.9 5.6 5.4 5.5 5.7
5.6 5.7 5.7 5.6 5.3 5.1 4.9 4.9 4.9 4.7 4.3 4.3 4.5 5.0 5.2 5.4 6.1 6.5 6.7 6.8 6.6 6.4 6.7 6.5 6.3 5.9 6.0 5.5 5.4 5.6 5.8 5.8 5.7 5.7 5.4 5.3 5.0 5.2 5.6 5.7 5.8 5.8 5.9
5.7 5.7 5.7 5.7 5.9 5.3 5.1 5.0 4.8 4.6 4.5 4.5 4.4 4.4 5.0 5.4 5.3 5.6 6.2 6.5 6.5 6.4 6.2 6.1 5.9 5.7 6.0 5.6 5.7 5.6 5.8 5.6 5.3 5.1 5.1 5.0 5.1 5.1 5.3 5.5 5.7 5.7 5.6
Wind_Speed
5 10 10 10 11 11 10 9 8 8 9 10 11 10 9 11 11 10 16 17 17 15 13 12 12 11 11 10 10 10 9 9 9 9 10 9 9 9 8 8 7 7 7
8 8 9 10 12 12 12 12 9 7 5 8 6 10 10 11 13 13 16 18 20 19 16 15 14 13 13 12 12 12 12 12 12 12 12 12 12 12 12 11 10 9 7
10 11 7 7 13 15 14 12 9 7 4 5 7 6 9 12 12 13 15 18 19 23 20 18 16 15 15 14 14 14 14 17 15 15 13 12 12 14 14 13 10 7 6
12 10 6 8 14 13 13 8 7 6 7 5 6 6 5 8 10 14 14 16 17 16 20 21 19 18 17 17 17 16 15 16 11 9 11 10 10 11 13 12 9 8 6
14 11 7 10 13 9 7 7 7 8 6 6 6 6 6 6 5 10 11 14 17 17 16 20 24 22 20 18 18 18 17 15 13 11 12 11 11 11 11 11 10 9 8
13 11 9 10 11 8 8 7 9 8 5 6 7 7 6 6 6 5 7 13 15 17 18 18 18 19 26 22 21 20 20 18 16 15 15 14 13 12 10 10 10 11 11
12 10 6 6 8 8 10 11 9 9 8 5 4 5 4 7 7 7 7 7 9 15 15 16 16 16 16 23 23 22 21 20 19 18 17 16 14 13 12 12 12 13 13
14 9 7 8 8 8 10 10 9 6 7 7 6 2 3 3 6 8 7 8 11 11 10 16 16 17 18 17 20 23 23 22 21 20 19 18 18 17 18 17 15 14 14
12 11 9 6 7 6 8 10 10 11 7 5 12 4 2 4 1 4 11 10 10 7 8 12 16 18 18 17 19 20 24 22 21 21 20 19 20 21 20 19 17 14 15
9 11 9 7 8 7 9 8 9 10 12 9 3 9 8 2 4 3 2 4 8 9 9 7 9 15 17 17 20 22 24 24 21 21 21 21 21 21 21 20 20 18 17
8 8 8 6 7 7 9 9 8 10 7 9 7 3 9 6 2 2 2 4 2 6 9 8 8 10 14 17 17 20 26 25 22 21 22 21 21 21 21 22 22 22 21
5 6 6 6 6 7 8 8 9 10 9 10 9 10 7 4 8 6 5 6 4 5 6 7 7 7 12 15 19 21 24 24 21 21 22 23 22 23 22 22 23 23 22
4 6 6 6 6 7 9 8 8 10 9 8 9 9 6 8 6 5 9 10 8 4 4 4 6 5 9 12 13 18 20 21 21 20 22 23 23 21 22 22 23 24 22
5 6 6 6 7 7 8 7 7 6 7 7 10 9 9 8 7 8 8 7 7 6 4 5 3 5 7 11 11 10 12 14 17 20 21 21 20 20 23 21 20 22 24
5 6 6 6 6 7 7 7 7 6 6 7 7 8 8 7 6 7 6 7 9 7 9 4 4 5 5 10 11 14 13 16 20 22 21 22 25 24 27 23 24 23 22
6 6 6 6 6 6 6 6 5 6 7 5 5 6 6 6 6 6 7 7 7 9 11 3 6 5 5 7 15 14 17 22 25 22 20 24 20 24 23 24 25 23 20
6 6 6 6 6 5 6 5 5 5 5 5 5 6 7 7 6 7 7 9 10 9 11 11 7 5 6 9 7 13 16 13 16 21 22 22 20 21 23 24 26 23 21
5 6 5 5 6 5 5 5 6 5 5 6 6 5 7 5 8 9 8 10 11 10 9 15 10 5 9 9 11 8 7 11 12 13 21 22 21 21 22 23 22 21 21
5 5 5 6 6 6 5 6 6 6 6 6 7 6 7 6 7 7 8 9 10 9 10 10 11 8 8 3 6 5 5 8 6 14 18 20 17 18 19 21 20 20 20
4 4 5 5 5 5 5 5 5 6 6 6 7 7 8 8 9 8 8 10 9 9 10 10 10 8 6 2 4 3 2 4 5 4 10 15 10 10 12 14 14 16 17
6 6 5 5 5 3 2 5 5 5 6 6 6 7 8 9 11 11 8 9 8 8 8 9 8 4 3 3 4 3 4 2 1 1 2 3 2 2 3 7 9 12 14
7 7 7 6 6 4 9 11 8 6 8 6 6 6 6 6 10 13 10 5 2 4 11 10 6 5 3 3 2 3 2 2 2 2 1 3 2 1 1 2 4 8 11
7 7 7 6 5 6 13 12 11 7 7 5 4 4 4 3 2 4 11 13 12 12 9 1 1 1 2 1 1 2 2 2 2 1 1 2 2 2 1 2 7 11 12
5 5 6 7 5 5 13 13 9 4 3 4 4 3 2 2 2 1 4 6 8 9 8 6 7 5 5 5 4 3 1 0 1 2 3 1 2 2 3 4 9 10 8
5 6 5 7 7 7 13 12 8 5 5 7 7 7 6 6 5 6 5 7 7 7 13 17 17 17 16 15 9 2 1 2 2 1 4 2 2 3 3 4 5 4 7
4 4 6 8 12 9 14 13 9 4 6 5 8 9 18 12 14 12 6 5 6 5 5 6 6 10 12 11 15 7 3 2 1 1 3 2 2 3 3 2 3 5 7
Wind_Direction
208 215 220 211 214 207 205 207 209 211 208 223 239 234 232 232 235 239 232 232 232 230 225 224 225 227 228 227 231 234 236 236 237 239 245 247 251 256 262 270 275 282 291
232 215 221 220 221 206 208 211 210 208 221 212 229 235 235 232 240 242 237 232 231 234 228 230 233 235 237 240 241 242 245 246 245 247 249 251 252 252 254 258 264 279 276
245 225 227 224 228 214 208 208 208 201 220 215 239 231 240 236 232 238 236 229 231 235 232 233 237 240 243 247 249 252 249 249 249 251 259 254 256 254 253 251 259 253 264
268 256 227 229 229 224 210 203 205 215 217 209 237 240 233 236 232 234 231 225 226 232 235 233 236 240 242 247 254 259 261 264 260 248 251 254 266 268 264 251 250 239 238
274 273 256 239 219 216 220 215 218 213 221 208 218 240 239 235 236 229 223 226 224 224 228 234 236 238 242 245 251 258 262 266 266 259 260 260 266 267 263 241 225 233 245
259 268 272 258 231 216 220 220 219 210 220 216 221 234 238 239 237 223 223 223 228 225 226 228 235 239 242 243 245 250 257 261 265 264 259 256 257 259 250 237 231 236 238
249 246 261 266 249 232 219 222 217 209 221 203 205 244 247 237 235 229 228 223 221 225 221 225 228 233 239 243 242 243 249 254 256 257 257 257 248 252 245 242 245 242 245
242 240 237 255 263 255 239 215 219 222 218 187 216 240 250 254 242 234 225 228 229 222 219 223 222 226 229 234 239 242 241 245 253 257 256 253 250 242 239 231 239 247 246
238 232 234 239 249 253 250 249 213 214 224 207 209 188 201 223 255 200 228 226 227 218 224 220 220 223 225 229 237 242 246 242 248 254 257 258 256 246 247 246 238 234 246
233 236 230 232 241 242 250 247 248 237 217 219 225 230 231 272 192 299 261 240 231 229 229 222 228 226 220 222 229 233 241 244 244 250 256 260 262 258 259 253 250 240 234
227 230 234 234 240 241 242 240 240 230 249 228 221 180 231 229 297 169 268 317 300 240 235 227 223 227 220 221 227 230 237 239 244 250 254 257 261 263 261 263 256 243 236
230 227 232 234 233 238 239 236 234 236 233 241 248 232 219 198 222 230 236 225 267 271 235 230 223 228 223 220 227 227 234 239 241 246 255 260 258 257 257 259 258 258 247
220 229 230 242 244 238 243 230 229 235 232 233 234 243 239 239 235 224 248 248 234 241 262 244 230 226 226 216 226 224 231 235 244 247 252 258 263 265 266 269 268 270 271
216 213 230 231 239 239 238 235 239 232 220 225 224 225 233 227 232 223 229 226 249 246 227 236 230 224 218 209 203 220 243 242 244 254 263 264 263 267 260 265 265 264 265
230 228 234 242 242 242 237 233 235 232 222 220 222 216 221 229 217 223 225 211 239 258 262 227 229 209 203 194 190 205 224 248 253 253 253 253 251 245 247 250 254 254 255
227 241 239 238 252 252 247 230 230 226 225 225 217 213 217 222 215 220 219 223 222 237 258 206 235 210 198 208 206 200 229 230 247 251 243 246 255 247 255 253 253 251 252
229 230 237 246 249 264 256 242 245 244 232 240 235 219 228 221 233 230 227 234 230 225 240 254 247 231 217 218 219 215 225 225 243 244 249 253 252 250 248 246 249 242 242
243 237 240 245 245 242 254 236 249 252 241 244 245 239 242 238 234 232 235 240 241 228 233 254 248 221 218 217 229 221 225 236 245 252 253 254 249 245 245 245 242 238 238
254 251 235 236 238 237 242 240 235 244 242 245 247 239 242 230 244 236 227 236 245 245 240 248 257 248 233 199 213 219 220 233 237 247 251 255 251 247 251 248 242 240 241
299 289 265 254 252 252 241 247 248 254 255 247 240 239 245 235 237 233 235 237 237 243 243 240 246 250 224 167 201 189 205 228 256 235 251 255 251 249 252 261 260 258 257
8 4 13 21 22 3 32 342 309 282 258 260 254 243 240 238 239 240 239 239 230 240 248 241 241 235 201 198 218 165 216 181 210 313 304 277 262 252 262 269 269 277 278
13 15 14 11 12 353 334 322 301 281 281 282 280 282 266 253 260 251 215 156 131 237 261 230 235 238 205 161 206 133 160 155 196 46 97 251 189 247 228 274 316 306 302
19 24 14 10 9 346 340 330 304 270 263 261 277 297 296 328 321 124 107 93 73 63 59 296 142 19 102 59 133 90 169 179 173 45 349 271 31 276 215 3 332 310 312
21 20 15 9 7 358 357 351 350 36 43 27 20 46 66 13 332 335 111 82 64 53 41 47 80 68 67 58 55 78 32 127 325 75 13 282 337 291 341 330 332 339 350
17 20 14 13 12 8 15 13 8 29 56 46 47 46 41 29 54 125 107 100 85 74 71 74 74 73 67 56 50 116 34 69 29 24 29 354 339 322 331 324 350 1 351
19 19 25 15 15 10 20 29 33 35 46 43 45 39 46 47 49 51 64 80 86 68 68 63 56 48 44 39 43 44 35 73 52 336 15 356 345 3 339 326 325 350 335